[[{"header":{"parameterUnit":"m.s-1","parameterCategory":1,"la1":30.2991,"la2":30.254,"lo1":-89.0895,"lo2":-89.0444,"dy":0.0017,"dx":0.0017,"nx":28,"ny":28,"refTime":"2024-03-05T03:00:00:Z","depth":0,"parameterNumber":2,"parameterNumberName":"U-component_of_WINDS"},"data":[0,0,0,0,0,0,0,0,0,0,0,0,0,0,0,0,0,0,0,0,0,0,0,0,0,0,0,0,0,0,0,0,0,0,0,0,0,0,0,0,0,0,0,0,0,0,0,0,0,0,0,0,0,0,0,0,0,0,0.3472,0.3473,0,0.3561,0.3562,0.3563,0.3597,0.3597,0.3597,0.3597,0.3685,0.3687,0.369,0,0,0,0,0,0,0,0,0,0,0,0,0,0.3331,0.3334,0.3472,0.3474,0.3475,0.356,0.3562,0.3563,0.3597,0.3597,0.3597,0.3597,0.3684,0.3687,0.369,0,0,0,0,0,0,0,0,0,0,0,0,0,0.3403,0.3335,0.3472,0.3502,0.3506,0.356,0.3562,0.3563,0.3598,0.3597,0.3597,0.3597,0.3683,0.3687,0.3691,0.3721,0,0,0.3702,0.3704,0,0,0,0,0,0,0,0,0.3399,0.3408,0.3497,0.35,0.3504,0.3568,0.3544,0.3616,0.3598,0.3563,0.3597,0.3596,0.3646,0.3653,0.367,0.3725,0.3729,0.3703,0.3705,0.3707,0.3708,0,0,0,0,0,0,0,0.3394,0.3405,0.3507,0.3498,0.3503,0.351,0.352,0.3558,0.3605,0.3566,0.3568,0.3578,0.3648,0.3666,0.3672,0.373,0.3703,0.3706,0.3708,0.371,0.3813,0.3814,0,0,0,0,0,0,0.3384,0.34,0.3504,0.351,0.345,0.3513,0.3524,0.3548,0.3605,0.3613,0.3579,0.358,0.366,0.3668,0.3676,0.3715,0.3707,0.371,0.3712,0.3813,0.3813,0.3814,0,0,0,0,0,0,0.3381,0.3393,0.3501,0.3456,0.347,0.3516,0.3542,0.355,0.3568,0.3615,0.3623,0.3589,0.366,0.367,0.3709,0.3718,0.3712,0.3715,0.3812,0.3813,0.3813,0.3793,0,0,0,0,0,0,0.3377,0.3392,0.3405,0.3456,0.3473,0.3534,0.3543,0.3552,0.3575,0.3577,0.3626,0.3634,0.3661,0.3703,0.3713,0.3723,0.3718,0.3812,0.3812,0.3813,0.3793,0.3792,0.3792,0,0,0,0,0,0.3372,0.3395,0.3405,0.3418,0.3489,0.3534,0.3544,0.3574,0.3575,0.3588,0.3618,0.3633,0.3715,0.3707,0.3718,0.373,0.3811,0.3812,0.3813,0.3793,0.3792,0.3792,0,0,0,0,0,0,0.3343,0.3402,0.3414,0.3455,0.3489,0.354,0.3557,0.3573,0.3607,0.3608,0.3643,0.3654,0.369,0.3714,0.3703,0.3761,0.3764,0.3768,0.3745,0.3745,0.3745,0.3738,0.3722,0,0,0,0,0,0.3342,0.3374,0.3424,0.3455,0.3471,0.3511,0.3532,0.3552,0.3589,0.3604,0.3636,0.3671,0.3704,0.3726,0.376,0.3796,0.3807,0.3809,0.3809,0.3808,0.3811,0.3831,0.3833,0.3817,0.3817,0.3817,0,0,0.3339,0.3375,0.3393,0.345,0.3479,0.3511,0.3523,0.3556,0.358,0.3608,0.3648,0.3672,0.3713,0.3751,0.3769,0.3772,0.3818,0.381,0.3809,0.3812,0.3832,0.3834,0.3835,0.3818,0.3818,0.3817,0,0,0.335,0.3381,0.341,0.3439,0.3483,0.3509,0.3515,0.3564,0.3582,0.3622,0.3643,0.3671,0.3729,0.3757,0.3778,0.3799,0.3813,0.3808,0.3807,0.3827,0.3828,0.3829,0.3836,0.3838,0.3811,0.3811,0.3811,0,0.334,0.339,0.3422,0.3455,0.3478,0.3506,0.3535,0.3561,0.3613,0.3629,0.3631,0.3703,0.3732,0.3777,0.3781,0.3798,0.3806,0.3803,0.3825,0.3827,0.3829,0.3836,0.3838,0.381,0.381,0.381,0.381,0,0.3376,0.341,0.3428,0.3479,0.3504,0.3535,0.3571,0.3592,0.361,0.3636,0.3675,0.3711,0.3752,0.3764,0.3782,0.3811,0.3811,0.3819,0.3822,0.3829,0.3836,0.3839,0.3809,0.3809,0.3809,0.3809,0,0,0.3372,0.344,0.3446,0.3469,0.3519,0.3546,0.3576,0.3617,0.3635,0.367,0.3696,0.3744,0.3751,0.3776,0.3796,0.3813,0.3826,0.3819,0.382,0.3819,0.386,0.3854,0.3856,0.3836,0.3837,0.3837,0.3856,0,0.339,0.3448,0.3477,0.3522,0.3554,0.3579,0.3606,0.3639,0.3663,0.3693,0.3719,0.3752,0.376,0.3774,0.3792,0.3821,0.3835,0.382,0.386,0.3861,0.385,0.386,0.3854,0.3871,0.3859,0.386,0.386,0,0.3419,0.3454,0.3502,0.3548,0.3562,0.3586,0.3625,0.3653,0.369,0.3707,0.3734,0.3754,0.3786,0.3787,0.3831,0.382,0.3838,0.3855,0.3856,0.3861,0.3861,0.3866,0.3877,0.3879,0.3865,0.3865,0.3864,0,0.3411,0.347,0.3507,0.3525,0.358,0.3596,0.3619,0.3656,0.3679,0.3712,0.3727,0.3764,0.3784,0.3811,0.384,0.3838,0.3882,0.3885,0.3896,0.3895,0.3904,0.3904,0.3918,0.3915,0.3915,0.3915,0.3915,0,0.3428,0.3456,0.3504,0.3526,0.3558,0.3591,0.3622,0.3647,0.3679,0.3706,0.373,0.3754,0.3791,0.382,0.3842,0.3876,0.3884,0.3898,0.3904,0.3896,0.3894,0.3909,0.3908,0.3916,0.3916,0.3916,0.3916,0,0.3425,0.3458,0.35,0.3548,0.356,0.3582,0.3622,0.3644,0.3669,0.3703,0.3713,0.3752,0.3787,0.3818,0.3864,0.3879,0.3913,0.392,0.3901,0.3904,0.3913,0.3912,0.3938,0.3943,0.3936,0.3936,0.3936,0,0.3434,0.3457,0.3507,0.3527,0.355,0.3582,0.3605,0.3638,0.366,0.3704,0.3721,0.3757,0.3789,0.3843,0.3875,0.391,0.3918,0.3925,0.3923,0.3915,0.3918,0.3916,0.3919,0.3924,0.3924,0.3924,0.3924,0,0.3446,0.3461,0.3494,0.3532,0.3559,0.3591,0.3623,0.3637,0.3676,0.37,0.3736,0.376,0.3807,0.3843,0.3882,0.3904,0.392,0.3924,0.3929,0.3921,0.3909,0.3916,0.39,0.3924,0.3924,0.3924,0.3924,0.3924,0.345,0.3471,0.3509,0.3545,0.3572,0.3602,0.3625,0.3653,0.3684,0.3725,0.3742,0.3779,0.3814,0.3868,0.389,0.3919,0.3922,0.3928,0.393,0.3931,0.3929,0.3904,0.3926,0.3926,0.3926,0.3926,0.3926,0,0.3463,0.3489,0.3521,0.3566,0.3593,0.3606,0.3642,0.3664,0.3696,0.3729,0.3759,0.38,0.3834,0.3869,0.3905,0.3921,0.3929,0.3929,0.3929,0.3933,0.3925,0.3917,0.3922,0.3922,0.3922,0.3922,0.3922,0.3922,0.3473,0.3509,0.3529,0.3578,0.3604,0.3641,0.366,0.3687,0.3713,0.3758,0.3787,0.3809,0.3842,0.3881,0.3913,0.3922,0.3934,0.3932,0.3943,0.3934,0.3934,0.3934,0.3928,0.3934,0.3934,0.395,0.395,0.395]},{"header":{"parameterUnit":"m.s-1","parameterCategory":1,"la1":30.2991,"la2":30.254,"lo1":-89.0895,"lo2":-89.0444,"dy":0.0017,"dx":0.0017,"nx":28,"ny":28,"refTime":"2024-03-05T03:00:00:Z","depth":0,"parameterNumber":3,"parameterNumberName":"V-component_of_WINDS"},"data":[0,0,0,0,0,0,0,0,0,0,0,0,0,0,0,0,0,0,0,0,0,0,0,0,0,0,0,0,0,0,0,0,0,0,0,0,0,0,0,0,0,0,0,0,0,0,0,0,0,0,0,0,0,0,0,0,0,0,2.0652,2.0651,0,2.0545,2.0544,2.0543,2.0502,2.0502,2.0503,2.0503,2.0387,2.0384,2.0381,0,0,0,0,0,0,0,0,0,0,0,0,0,2.0817,2.0815,2.0653,2.0651,2.065,2.0545,2.0544,2.0542,2.0502,2.0502,2.0503,2.0503,2.0388,2.0384,2.038,0,0,0,0,0,0,0,0,0,0,0,0,0,2.0731,2.0814,2.0653,2.0617,2.0613,2.0546,2.0544,2.0542,2.0502,2.0502,2.0503,2.0503,2.039,2.0385,2.038,2.0338,0,0,2.0364,2.0362,0,0,0,0,0,0,0,0,2.0736,2.0725,2.0624,2.062,2.0615,2.0538,2.0559,2.0473,2.0502,2.0544,2.0503,2.0504,2.0436,2.0428,2.0406,2.0332,2.0327,2.0364,2.0361,2.0358,2.0357,0,0,0,0,0,0,0,2.0742,2.073,2.061,2.0622,2.0617,2.0605,2.0593,2.0543,2.0488,2.054,2.0537,2.0525,2.0434,2.0411,2.0403,2.0326,2.0364,2.0359,2.0356,2.0354,2.0212,2.0211,0,0,0,0,0,0,2.0755,2.0735,2.0613,2.0607,2.0678,2.0602,2.0589,2.0562,2.0489,2.0478,2.0525,2.0524,2.042,2.0409,2.0399,2.0345,2.0358,2.0354,2.0351,2.0213,2.0212,2.0211,0,0,0,0,0,0,2.0759,2.0744,2.0618,2.067,2.0653,2.0598,2.0568,2.0559,2.0537,2.0477,2.0467,2.0512,2.042,2.0406,2.0354,2.0341,2.0351,2.0347,2.0214,2.0212,2.0212,2.0238,0,0,0,0,0,0,2.0764,2.0746,2.0731,2.067,2.065,2.0576,2.0568,2.0557,2.0529,2.0526,2.0462,2.0452,2.0419,2.0362,2.0349,2.0334,2.0343,2.0214,2.0213,2.0212,2.0238,2.0238,2.0238,0,0,0,0,0,2.077,2.0741,2.073,2.0716,2.063,2.0575,2.0564,2.0528,2.0528,2.0511,2.0473,2.0454,2.0344,2.0357,2.0342,2.0325,2.0215,2.0213,2.0212,2.0238,2.0238,2.0238,0,0,0,0,0,0,2.0799,2.0732,2.072,2.0671,2.063,2.0569,2.0547,2.0529,2.0485,2.0484,2.0439,2.0425,2.0377,2.0345,2.036,2.0281,2.0278,2.0274,2.0303,2.0303,2.0303,2.0311,2.0338,0,0,0,0,0,2.0801,2.0764,2.0706,2.0669,2.0649,2.0602,2.0576,2.0552,2.0507,2.0488,2.0446,2.0401,2.0356,2.0327,2.0283,2.0233,2.0218,2.0214,2.0214,2.0215,2.0211,2.0182,2.018,2.0206,2.0206,2.0206,0,0,2.0802,2.0761,2.074,2.0674,2.0639,2.06,2.0587,2.0546,2.0516,2.0481,2.043,2.0398,2.0344,2.0293,2.0268,2.0266,2.0201,2.0212,2.0213,2.0209,2.018,2.0178,2.0176,2.0205,2.0205,2.0205,0,0,2.0786,2.0751,2.0717,2.0682,2.063,2.0599,2.0591,2.0533,2.0511,2.0459,2.0432,2.0395,2.0319,2.0282,2.0253,2.0224,2.0204,2.021,2.021,2.0182,2.018,2.0178,2.0168,2.0164,2.0207,2.0207,2.0207,0,2.0794,2.0736,2.07,2.0662,2.0633,2.0602,2.0566,2.0533,2.0468,2.0449,2.0447,2.0351,2.0313,2.0253,2.0246,2.0223,2.0212,2.0217,2.0184,2.0181,2.0179,2.0168,2.0164,2.0208,2.0208,2.0208,2.0207,0,2.0749,2.0709,2.0687,2.0628,2.0596,2.0559,2.0516,2.0488,2.0467,2.0436,2.0383,2.0336,2.0282,2.0266,2.0244,2.0203,2.0203,2.0193,2.019,2.0178,2.0167,2.0163,2.0209,2.0209,2.0209,2.0208,0,0,2.0747,2.067,2.0663,2.0636,2.0577,2.0544,2.0505,2.0454,2.0431,2.0387,2.0352,2.0289,2.028,2.0247,2.0221,2.0197,2.0176,2.019,2.0188,2.0189,2.0128,2.0136,2.0132,2.0164,2.0163,2.0162,2.0133,0,2.0723,2.0654,2.0621,2.0566,2.0528,2.0498,2.0464,2.0423,2.0393,2.0355,2.032,2.0276,2.0267,2.0248,2.0223,2.0185,2.0164,2.0186,2.013,2.0128,2.0145,2.0127,2.0135,2.011,2.0128,2.0128,2.0127,0,2.0685,2.0645,2.0586,2.0532,2.0515,2.0485,2.0436,2.0401,2.0353,2.0333,2.0297,2.0272,2.0228,2.0228,2.0166,2.0182,2.0157,2.0134,2.0132,2.0126,2.0127,2.012,2.0101,2.0097,2.012,2.0121,2.0121,0,2.0691,2.0621,2.0577,2.0555,2.0491,2.047,2.0442,2.0395,2.0367,2.0323,2.0304,2.0255,2.0228,2.019,2.0151,2.0155,2.0093,2.009,2.0074,2.0075,2.0062,2.0064,2.0039,2.0046,2.0046,2.0046,2.0046,0,2.0667,2.0633,2.0579,2.0552,2.0513,2.0474,2.0435,2.0404,2.0363,2.0328,2.0298,2.0266,2.0217,2.0178,2.0147,2.0101,2.0089,2.007,2.0062,2.0073,2.0075,2.0055,2.0056,2.0045,2.0045,2.0045,2.0046,0,2.0666,2.0629,2.058,2.0524,2.0509,2.0482,2.0433,2.0405,2.0374,2.033,2.0318,2.0267,2.022,2.0178,2.0114,2.0094,2.0046,2.0036,2.0063,2.0059,2.0046,2.0048,2.0008,2.0001,2.0012,2.0012,2.0012,0,2.0654,2.0627,2.0569,2.0545,2.0518,2.0479,2.0451,2.0412,2.0383,2.0328,2.0306,2.0257,2.0216,2.0141,2.0098,2.0049,2.0038,2.0028,2.003,2.0042,2.0038,2.004,2.0037,2.0028,2.0028,2.0028,2.0028,0,2.0636,2.0619,2.0581,2.0536,2.0504,2.0466,2.0427,2.0408,2.0361,2.033,2.0283,2.0252,2.0188,2.0139,2.0086,2.0055,2.0033,2.0028,2.0021,2.0032,2.0049,2.004,2.0064,2.0029,2.0028,2.0028,2.0028,2.0028,2.0629,2.0604,2.056,2.0518,2.0485,2.045,2.0421,2.0387,2.0348,2.0295,2.0273,2.0225,2.0177,2.0104,2.0073,2.0033,2.0029,2.002,2.0018,2.0016,2.0018,2.0055,2.0023,2.0023,2.0023,2.0023,2.0023,0,2.0609,2.058,2.0542,2.049,2.0457,2.0442,2.0398,2.0371,2.033,2.0288,2.0249,2.0194,2.0147,2.0101,2.0051,2.0028,2.0017,2.0016,2.0017,2.0011,2.0024,2.0035,2.0026,2.0026,2.0026,2.0026,2.0026,2.0026,2.0595,2.0553,2.0531,2.0472,2.0441,2.0396,2.0373,2.0339,2.0306,2.0248,2.0209,2.018,2.0136,2.0083,2.0039,2.0026,2.0009,2.0011,1.9995,2.0009,2.001,2.001,2.002,2.0007,2.0007,1.9985,1.9985,1.9984]}]]